Location: Amberg
(47.9300°N, 9.6489°E)
Time: 12:00:36
(UTC+00:00)

Daily predictions for brighter satellites

Satellite Brightness Start Highest point End
(mag) Time Altitude Azimuth Time Altitude Azimuth Time Altitude Azimuth
Cosmos 1300 2.7 20:03:08 10° N 20:06:57 84° W 20:10:44 10° S
Cosmos 1271 Rocket 4.4 20:05:11 10° NNE 20:08:22 22° ENE 20:11:30 10° ESE
Cosmos 1709 Rocket 4.2 20:02:54 10° N 20:09:00 60° ENE 20:15:09 10° SSE
Ariane Rocket 3.2 20:06:47 10° S 20:11:53 78° WSW 20:17:01 10° NNW
Terra 2.9 20:07:48 10° SE 20:12:00 32° ENE 20:16:12 10° N
Meteor 2-5 Rocket 4.1 20:07:33 10° SSE 20:12:46 45° E 20:18:02 10° NNE
FALCON 9 DEB 3.0 20:10:05 10° SW 20:13:17 60° SSE 20:16:32 10° ENE
ARIANE 5 R/B 4.1 20:09:47 10° ESE 20:13:23 24° ENE 20:16:59 10° N
ERBS 4.3 20:15:02 10° W 20:17:00 16° SW 20:18:57 10° S
Cosmos 1943 3.6 20:16:48 10° SW 20:22:27 69° WNW 20:28:07 10° NNE
Okean 1 Rocket 4.3 20:21:18 10° NNW 20:25:31 41° W 20:29:42 10° SSW
USA 267 3.6 20:20:06 10° ENE 20:26:17 43° SE 20:32:26 10° SSW
Cosmos 1603 4.1 20:21:50 10° SW 20:27:31 71° WNW 20:33:17 10° NNE
Cosmos 1953 4.0 20:25:41 10° NNW 20:29:09 30° W 20:32:38 10° SSW
Cosmos 1455 Rocket 3.0 20:25:24 10° N 20:29:47 81° E 20:34:07 10° SSE
CZ-4B R/B 2.6 20:30:36 10° N 20:33:19 36° WNW 20:36:00 10° SW
USA 245 3.8 20:28:46 10° S 20:33:53 80° WSW 20:38:01 10° NNW
S3M 4.4 20:30:55 10° SSW 20:37:05 68° W 20:43:14 10° N
Cosmos 1025 Rocket 3.0 20:33:48 10° S 20:38:02 70° E 20:42:19 10° NNE
Cosmos 1371 Rocket 4.0 20:37:11 10° S 20:42:20 63° ESE 20:47:34 10° NNE
Spot 2 Rocket 3.5 20:37:59 10° SSE 20:43:00 86° ENE 20:48:08 10° NNW
Cosmos 1607 4.0 20:42:55 10° SSW 20:48:58 56° ESE 20:55:01 10° NE
Helios 1A Rocket 2.9 20:45:44 12° SSE 20:49:27 85° WSW 20:53:34 10° NNW
Cosmos 1455 2.2 20:49:29 10° N 20:53:17 65° E 20:56:08 17° SSE
Cosmos 1980 Rocket 4.4 20:51:28 10° N 20:55:06 17° NE 20:58:42 10° ENE
ATLAS 2AS CENTAUR R/B 2.8 20:48:10 10° NW 20:55:24 76° NE 21:01:13 14° SE
Cosmos 1536 Rocket 4.2 20:53:22 16° SSE 20:56:24 37° E 21:00:25 10° NNE
SPOT 3 Rocket 4.3 20:52:23 10° S 20:57:23 49° W 21:02:27 10° NNW
Cosmos 2369 Rocket 4.5 20:54:32 10° WNW 20:57:51 16° W 21:01:11 10° SW
Cosmos 1697 Rocket 4.2 20:54:56 10° N 20:59:42 27° NE 21:04:26 10° ESE
USA 234 3.5 20:54:47 10° ESE 21:01:17 70° NNE 21:07:49 10° NW
Lacrosse 4 Rocket 4.0 20:58:20 10° W 21:01:41 23° NW 21:05:01 10° N
Meteor 1-24 Rocket 3.6 20:57:22 10° SSW 21:02:40 83° WNW 21:08:05 10° N
Cosmos 1975 Rocket 3.8 20:58:24 10° SSW 21:02:48 55° WNW 21:07:11 10° N
Cosmos 1624 Rocket 4.0 20:58:30 10° SSW 21:03:45 86° ESE 21:09:00 10° NNE
SPOT 5 3.1 21:00:59 12° S 21:05:06 60° WSW 21:09:26 10° NNW
Cosmos 1190 Rocket 4.5 21:01:42 10° NNW 21:06:55 57° WSW 21:11:23 14° S
Cosmos 2184 Rocket 4.1 21:05:04 10° N 21:11:12 64° ENE 21:15:55 18° SSE
X-37B 2.5 21:11:02 10° SSW 21:11:34 13° SSW 21:11:34 13° SSW
Cosmos 2228 3.7 21:09:47 10° N 21:13:48 40° ENE 21:16:17 20° SE
CZ-2C R/B 3.7 21:09:54 10° NNE 21:14:34 86° WNW 21:19:06 10° SSW
Resurs 01 Rocket 4.3 21:14:46 10° WSW 21:16:53 13° W 21:19:01 10° WNW
RESURS DK-1 3.8 21:13:58 10° NNW 21:17:38 29° NE 21:20:38 14° ESE
Cosmos 1544 Rocket 4.0 21:16:50 10° NNW 21:21:05 57° W 21:24:27 16° S
Lacrosse 5 rocket 1.3 21:18:05 10° WNW 21:21:56 64° SW 21:24:15 24° SE
ATLAS 5 CENTAUR R/B 4.1 21:12:08 10° NW 21:22:47 35° WSW 21:26:13 14° SSW
Cosmos 1656 3.8 21:17:27 10° NNW 21:22:54 66° ENE 21:26:45 20° SE
Cosmos 2056 Rocket 3.9 21:18:24 10° SSW 21:23:44 67° WNW 21:29:10 10° NNE
Cosmos 1741 Rocket 4.4 21:22:49 10° NNW 21:28:04 56° ENE 21:31:37 20° SE
ERS-1 Rocket 3.8 21:24:22 13° S 21:28:41 45° W 21:33:32 10° NNW
Cosmos 1833 Rocket 3.6 21:27:38 21° SSE 21:30:18 30° ESE 21:35:08 10° NE
Lacrosse 5 1.8 21:27:43 10° NW 21:32:51 85° SW 21:36:18 21° SE
Cosmos 676 Rocket 4.5 21:28:27 10° NNW 21:33:39 55° WSW 21:37:18 19° S
Cosmos 1420 Rocket 4.4 21:29:43 10° SSW 21:34:56 66° WNW 21:40:13 10° NNE
Tiangong 2.5 21:34:01 10° WSW 21:36:05 23° SSW 21:36:05 23° SSW
Cosmos 2084 3.1 21:34:04 10° SW 21:37:54 85° NW 21:41:48 10° NE
NOSS 2-1 (E) 4.1 21:34:15 10° NW 21:38:51 78° SW 21:43:01 22° SSE
SL-8 R/B 3.7 21:34:44 10° W 21:39:34 84° N 21:44:25 10° E
Cosmos 1271 Rocket 4.1 21:40:43 10° NNW 21:44:21 34° W 21:47:01 16° SSW
Cosmos 2082 Rocket 3.8 21:45:07 16° ESE 21:46:44 18° E 21:50:28 10° ENE
ARIANE 5 R/B 3.5 21:46:38 18° SSW 21:49:37 42° W 21:53:53 10° NNW
Terra 3.0 21:46:06 14° SSW 21:49:42 34° W 21:54:04 10° NNW
Cosmos 2058 Rocket 4.1 21:52:16 10° N 21:56:18 34° ENE 21:58:21 23° ESE
USA 276 2.4 21:58:54 41° ESE 21:58:54 41° ESE 22:01:05 10° ENE
Cosmos 2344 4.4 21:50:10 10° NW 21:58:50 73° NE 22:10:08 12° SE
Cosmos 1850 Rocket 4.0 21:54:57 10° NNW 22:00:12 80° WSW 22:03:00 28° SSE
SAR-Lupe-4 3.8 21:58:17 10° N 22:01:51 68° WNW 22:03:44 26° SSW
Cosmos 1892 Rocket 4.0 22:02:20 30° SSE 22:04:04 46° E 22:08:17 10° NNE
GP-B 3.2 22:00:45 10° N 22:05:10 61° E 22:07:04 32° SSE
USA 267 3.5 22:03:03 10° NE 22:09:34 73° NNW 22:16:05 10° WSW
Cosmos 1408 3.2 22:13:04 34° ESE 22:13:37 36° E 22:16:49 10° NNE
Spot 4 3.9 22:11:56 30° SSE 22:14:16 72° ENE 22:19:04 10° N
COSMOS 2406 3.8 22:13:20 28° SSE 22:15:46 41° ESE 22:21:09 10° NE
ADEOS Rocket 3.7 22:15:50 22° SE 22:20:31 60° ENE 22:27:56 10° N
Cosmos 962 Rocket 4.5 22:15:20 10° N 22:21:34 86° E 22:25:08 28° S
ASTEX 1 3.5 22:16:40 10° N 22:21:41 75° W 22:24:31 26° SSW
Cosmos 1331 Rocket 4.0 22:19:07 26° SSW 22:22:13 79° ESE 22:27:33 10° NNE
Nadezhda 1 Rocket 4.2 22:18:57 19° SSW 22:23:29 65° WNW 22:29:32 10° N
Cosmos 2154 Rocket 4.5 22:17:53 10° NNW 22:23:55 53° W 22:27:53 21° SSW
Cosmos 2369 4.1 22:18:39 10° NNW 22:24:20 59° ENE 22:27:54 23° SE
Meteor 1-11 4.3 22:22:19 29° SSE 22:25:07 62° E 22:30:39 10° NNE
Cosmos 1452 Rocket 4.0 22:21:04 14° SW 22:25:36 60° WNW 22:30:50 10° NNE
Cosmos 1825 3.4 22:26:15 25° ESE 22:26:54 26° E 22:30:04 10° NNE
SL-16 R/B 4.3 22:23:58 10° N 22:28:17 21° NE 22:32:34 10° E
Cosmos 1328 4.1 22:28:56 31° SSW 22:30:44 64° WNW 22:34:44 10° N
H-2A R/B 3.7 22:27:50 10° NNE 22:31:58 54° E 22:33:14 38° SSE
Cosmos 1980 Rocket 2.4 22:34:31 10° NNW 22:40:14 68° ENE 22:43:31 26° SE
Cosmos 1110 Rocket 4.2 22:37:53 20° SW 22:41:29 68° WNW 22:46:48 10° NNE
Cosmos 1697 Rocket 2.8 22:38:33 10° NNW 22:44:07 63° WSW 22:46:39 32° S
USA 234 3.6 22:41:26 28° S 22:44:31 46° SW 22:50:48 10° WNW
ERS-2 2.9 22:41:15 10° NNE 22:44:34 34° E 22:44:58 33° ESE
ATLAS 2AS CENTAUR R/B 3.9 22:39:57 10° WNW 22:45:36 27° WSW 22:48:38 19° SSW
Cosmos 1302 Rocket 4.0 22:43:52 34° S 22:46:04 64° ESE 22:51:14 10° NNE
Cosmos 1892 2.5 22:48:56 49° S 22:49:52 89° E 22:53:39 10° N
Celestis-02/Orion 38 4.5 22:48:31 32° SSE 22:50:57 82° WSW 22:56:05 10° NNW
SJ 16-02 3.8 22:50:39 10° N 22:53:36 17° NE 22:56:32 10° E
In-Cosmos 22 Rocket 4.2 22:52:54 33° S 22:55:32 73° E 23:01:04 10° NNE
RESURS DK-1 3.3 22:51:55 10° NW 22:55:39 33° WSW 22:56:28 30° SW
Lacrosse 5 rocket 3.7 22:59:30 10° WSW 22:59:45 10° WSW 22:59:45 10° WSW
SL-8 Rocket 4.1 22:54:45 10° NNW 23:01:00 70° W 23:04:12 30° S
Cosmos 2218 Rocket 4.1 23:00:23 10° NNW 23:06:47 75° W 23:10:07 30° S
Cosmos 1758 Rocket 4.4 23:07:07 30° SE 23:08:22 37° E 23:12:23 10° NNE
ALOS 2 3.0 23:07:30 37° SSW 23:08:54 53° W 23:13:13 10° NNW
Cosmos 2322 Rocket 3.9 23:04:58 10° NNW 23:09:52 29° NE 23:14:44 10° ESE
Cosmos 2278 3.9 23:04:32 10° NNW 23:10:16 70° ENE 23:13:40 25° SE
Cosmos 1833 Rocket 3.5 23:09:16 14° SW 23:13:59 49° NW 23:19:28 10° NNE
Cosmos 2366 rocket 4.2 23:08:39 10° NNW 23:14:54 66° W 23:18:08 30° SSW
Lacrosse 5 3.5 23:11:42 10° W 23:15:11 19° WSW 23:15:28 19° SW
Cosmos 2084 Rocket 3.1 23:14:27 10° NW 23:18:22 85° SW 23:19:33 44° SE
Cosmos 1812 Rocket 3.7 23:14:41 10° N 23:19:10 69° ENE 23:20:47 38° SSE
SL-8 R/B 3.7 23:17:19 10° WNW 23:22:04 61° SSW 23:24:35 27° SE
Cosmos 968 Rocket 3.9 23:21:21 10° NNW 23:26:20 48° WSW 23:28:09 33° SSW
Cosmos 2082 Rocket 2.2 23:26:56 27° SW 23:30:07 80° WNW 23:35:53 10° NNE
ATLAS 5 CENTAUR R/B 2.3 23:30:58 28° ESE 23:30:59 28° ESE 23:34:29 10° ENE
Cosmos 1633 2.4 23:31:19 61° SSE 23:31:49 76° E 23:35:19 10° NNE
Resurs 1-4 Rocket 4.4 23:30:12 10° ENE 23:32:40 13° E 23:35:07 10° ESE
USA 276 2.5 23:30:38 10° W 23:33:31 56° N 23:36:24 10° ENE
Cosmos 1602 Rocket 3.4 23:32:14 44° S 23:33:36 90° E 23:37:57 10° N
BREEZE-M DEB (TANK) 4.2 23:31:26 10° WNW 23:35:13 90° SSW 23:52:05 10° ESE
Cosmos 1869 4.1 23:38:06 10° NNW 23:41:40 36° W 23:42:27 33° WSW
Cosmos 1486 Rocket 4.0 23:39:29 10° NNW 23:44:42 73° WSW 23:46:54 35° S
Cosmos 2360 Rocket 3.6 23:46:25 10° NNW 23:51:40 36° NE 23:56:52 10° ESE
USA 267 4.5 23:46:01 10° ENE 23:52:07 43° N 23:58:11 10° WNW
Cosmos 1238 3.9 23:55:46 74° SSW 23:55:59 84° W 23:59:02 10° N
